Location: Unsp...
(0.0000°N, 0.0000°E)
Time: 19:20:44
(UTC+02:00)

Daily predictions for brighter satellites

Satellite Brightness Start Highest point End
(mag) Time Altitude Azimuth Time Altitude Azimuth Time Altitude Azimuth
Cosmos 1048 Rocket 4.1 20:23:16 10° NNW 20:28:33 89° ENE 20:33:47 10° SSE
Cosmos 1484 Rocket 3.2 20:25:31 10° SSE 20:29:24 47° E 20:33:14 10° N
USA 238 DEB 3.8 20:23:15 10° NNW 20:30:13 71° ENE 20:37:12 10° SSE
USA 238 3.8 20:23:22 10° NNW 20:30:19 70° ENE 20:37:19 10° SSE
Meteor 1-29 3.2 20:28:13 10° N 20:31:35 74° W 20:34:58 10° SSW
PAYLOAD A 3.1 20:32:29 10° WSW 20:36:27 78° S 20:41:10 10° E
ARIANE 5 DEB (SYLDA) 1.9 20:32:54 10° W 20:36:47 64° S 20:38:43 10° E
FREGAT/IRIS 4.0 20:36:52 10° SE 20:39:22 22° E 20:41:51 10° NNE
SL-19 R/B 3.6 20:39:15 10° S 20:42:10 78° WSW 20:44:57 10° NNW
USA 234 4.5 20:41:47 10° E 20:45:58 18° SE 20:50:09 10° S
SJ-6B 3.0 20:43:17 10° SSE 20:47:21 57° E 20:51:20 10° N
Cosmos 2278 Rocket 3.3 20:45:36 10° SSE 20:49:40 20° ESE 20:53:44 10° ENE
Nadezhda 1 Rocket 4.1 20:43:27 10° N 20:49:42 60° E 20:56:00 10° SSE
Cosmos 2084 3.2 20:46:50 10° SSW 20:51:01 69° ESE 20:54:56 10° NNE
Cosmos 1733 Rocket 4.4 20:49:00 10° SE 20:52:06 19° E 20:55:11 10° NE
Cosmos 1844 Rocket 2.7 20:47:54 10° S 20:53:29 60° ESE 20:59:02 10° NNE
Cosmos 1869 3.2 20:49:33 10° N 20:53:30 82° E 20:57:27 10° S
Cosmos 1844 4.1 20:49:02 10° S 20:54:20 41° ESE 20:59:39 10° NE
ASTRO E2 3.1 20:52:28 10° SW 20:56:17 42° SSE 20:59:14 16° E
Ariane H10 3.2 20:45:36 10° W 20:58:33 61° SSW 21:01:18 19° ESE
Centaur AC-146 3.8 20:54:21 10° W 21:00:06 25° NW 21:02:21 10° NNE
Cosmos 1709 Rocket 4.1 20:54:34 10° S 21:00:40 77° W 21:06:46 10° N
Abrixas 2.3 20:59:39 10° SW 21:02:41 78° SE 21:05:42 10° NE
Cosmos 158 Rocket 4.0 20:59:54 10° NNW 21:04:45 75° WSW 21:09:37 10° S
Coronas F rocket 2.8 21:06:33 20° NE 21:06:33 20° NE 21:07:49 10° NNE
ALOS 4.0 21:06:12 15° ENE 21:06:12 15° ENE 21:08:35 10° NE
Resurs 1-3 4.2 21:05:05 19° SE 21:07:39 35° ENE 21:11:38 10° NNE
NOSS 3-2 (A) 4.3 20:59:56 10° N 21:07:46 55° ENE 21:14:16 16° SE
Cosmos 2074 Rocket 4.3 21:03:12 10° SSE 21:09:09 44° E 21:15:03 10° NNE
FUSE 3.9 21:04:46 10° WSW 21:10:09 88° SSE 21:14:45 14° ENE
Cosmos 1455 4.1 21:07:56 10° NNW 21:11:26 33° W 21:14:58 10° SSW
ARIANE 5 R/B 3.6 21:06:59 10° WSW 21:11:48 60° S 21:28:56 21° ESE
ARIANE 5 R/B 3.6 21:07:00 10° WSW 21:11:48 60° S 21:28:54 21° ESE
ARIANE 5 R/B 3.6 21:06:59 10° WSW 21:11:48 60° S 21:28:55 21° ESE
ARIANE 5 R/B 3.6 21:06:59 10° WSW 21:11:48 60° S 21:28:57 21° ESE
Cosmos 1943 3.8 21:08:05 10° N 21:13:10 36° ENE 21:15:34 25° ESE
MINOTAUR IV R/B 4.4 21:09:08 10° S 21:13:38 79° ESE 21:18:05 10° NNE
Fermi 3.8 21:12:19 10° WNW 21:16:22 68° SSW 21:18:03 33° SE
Cosmos 2181 Rocket 4.5 21:10:52 10° NNE 21:16:41 38° E 21:20:15 21° SE
Cosmos 1867 3.5 21:11:52 10° NNW 21:17:16 79° ENE 21:21:07 19° SSE
BREEZE M DEB (TANK) 4.4 21:13:54 10° N 21:17:46 41° ENE 21:25:29 22° ESE
Meteor 2-3 Rocket 4.2 21:16:23 10° SSW 21:22:01 63° W 21:27:34 10° N
Cosmos 2221 Rocket 3.5 21:19:06 10° N 21:23:27 62° E 21:25:45 26° SSE
ARIANE 5 R/B 1.3 21:19:52 10° W 21:24:23 85° N 21:24:35 72° ENE
Helios 1A 3.1 21:21:13 11° S 21:25:15 75° WSW 21:29:24 10° NNW
NOAA 12 4.5 21:22:17 10° S 21:27:34 64° WSW 21:32:49 10° NNW
Cosmos 2251 Rocket 3.9 21:23:56 10° NNW 21:29:05 64° WSW 21:34:11 10° S
Ariane H10+ 3.7 21:08:10 10° W 21:29:25 63° NNW 21:33:27 23° ENE
Milstar 3 Cent rocket 4.1 21:13:08 10° SW 21:30:57 47° SSE 21:35:37 30° ESE
Spelda 3.9 21:29:04 10° W 21:31:34 60° S 21:32:16 49° SE
ATLAS V CENTAUR R/B 2.7 21:30:45 10° W 21:32:08 47° WNW 21:32:08 47° WNW
USA 215 3.6 21:32:52 33° ESE 21:35:16 46° NE 21:41:28 10° NNW
GPS 2-15 Rocket1 4.1 21:34:36 10° W 21:39:10 37° SSW 21:40:08 33° S
SL-08 ROCKET BODY 4.3 21:34:12 10° S 21:40:21 78° E 21:46:23 10° N
CZ-4C R/B 3.6 21:32:49 10° NW 21:40:28 54° WSW 21:47:51 11° S
SWIFT 2.2 21:38:45 10° WSW 21:43:02 89° NNW 21:43:10 84° ENE
METEOR-M 4.4 21:40:59 15° S 21:45:20 67° WSW 21:50:37 10° NNW
Centaur AC-69 4.4 21:28:50 10° WNW 21:46:39 48° N 21:48:17 36° NE
Meteor 1-26 Rocket 4.2 21:43:32 10° N 21:49:26 86° E 21:51:59 36° S
Okean 1-7 2.9 21:45:46 10° N 21:50:05 88° WNW 21:50:05 88° WNW
Resurs 01 Rocket 3.0 21:46:30 13° SSW 21:50:07 37° WSW 21:54:10 10° NW
Ariane H10 4.2 21:43:42 10° W 22:01:43 67° SSW 22:03:45 52° SE
Cosmos 2154 Rocket 4.2 22:17:45 60° N 22:17:45 60° N 22:22:44 10° N
Aurora 2 Rocket 3.8 22:08:26 10° WSW 22:17:38 68° SSE 22:17:38 68° SSE
ARIANE 5 R/B 4.0 22:23:35 10° W 23:01:51 - E 22:25:47 46° WSW
USA 234 3.4 22:22:13 10° NNE 22:28:39 67° NW 22:35:06 10° SW
ARIANE 5 DEB (SYLDA) 3.6 22:05:19 10° W 22:28:46 83° N 22:29:25 76° ENE
Cosmos 2278 Rocket 4.0 22:28:42 10° SW 22:33:27 28° WNW 22:38:12 10° NNW
CENTAUR R/B 3.9 22:46:04 10° NNW 22:51:16 41° N 22:51:16 41° N
ARIANE 5 R/B 4.3 14:43:18 10° W 23:07:48 78° WNW 23:07:48 78° WNW
